Zurück zum Katalog

DELTA 1 DEB

AktivSSO
NORAD 7036·DEBRIS·🇺🇸 United States

Gestartet Nov 6, 1973 von Vandenberg Space Force Base

Loading…

Nächste Überflüge (nächste 24 Stunden)

TLE

AktuellSource: Space-Track

Epoche: Sep 14, 2026, 10:19 UTC

1 07036U 73086AC  26257.43015091  .00000634  00000-0  40911-2 0  9995
2 07036 101.6017 230.1413 0054849  20.5235 133.4913 12.56076643408348

Verfolge DELTA 1 DEB in Echtzeit mit AllMySat

Download on the App Store